Wind_Speed
11 15 18 29 23 28 29 31 31 30 28 28 28 26 29 30 31 28 27 21 29 18 19 14 13 15 20 25 27 27 34 34 33 29 28 29 27 29 19 22 25 18 14 11
4 7 13 20 31 33 33 37 37 36 34 31 26 30 31 35 36 34 28 26 19 18 18 15 20 20 21 21 28 35 40 39 38 34 32 33 34 32 29 23 25 18 13 12
7 8 9 10 12 18 24 25 29 33 34 37 38 32 28 26 28 24 30 32 26 22 22 25 27 20 19 21 22 29 32 32 31 24 27 28 30 27 24 25 27 25 19 10
7 8 9 10 13 15 17 19 21 20 24 28 31 33 31 35 38 39 38 31 32 28 24 28 18 20 17 16 17 17 18 16 17 15 16 17 19 25 29 30 33 29 22 19
10 11 11 13 15 18 19 21 23 24 23 24 25 29 32 35 37 35 35 34 35 30 27 24 20 27 22 20 21 22 20 17 15 17 17 14 16 16 26 34 32 34 28 26
12 13 13 13 13 15 17 19 21 24 25 26 24 25 27 29 27 26 30 31 35 36 34 30 23 32 29 25 24 25 25 24 21 20 19 17 17 16 20 26 37 38 32 26
12 13 13 13 13 15 17 19 19 21 25 26 25 25 25 25 25 23 23 23 26 29 34 41 34 35 39 32 28 30 28 31 25 24 20 15 18 17 18 22 20 22 27 29
12 11 12 13 13 14 16 18 18 21 23 24 24 24 26 26 24 22 21 22 24 26 26 24 31 37 42 46 39 36 28 23 24 25 22 17 17 15 17 24 26 25 23 26
14 15 13 11 11 12 14 16 19 21 22 23 24 22 26 27 26 25 24 23 22 23 22 23 21 22 28 33 32 30 31 31 28 26 22 20 17 16 16 23 28 30 29 30
17 15 14 11 10 12 14 14 17 19 21 22 23 19 18 28 29 27 27 29 25 25 25 25 24 26 26 27 28 35 37 37 33 29 28 26 22 18 17 19 28 32 35 33
14 14 13 12 12 12 11 11 14 18 21 23 25 25 25 26 25 26 25 27 28 28 27 27 28 27 26 24 26 32 42 45 40 37 37 36 29 25 20 19 24 31 37 40
14 15 16 14 12 12 12 11 14 16 19 22 23 25 24 22 17 16 17 19 20 24 27 30 33 29 27 26 25 26 32 40 46 44 45 44 35 30 25 23 23 24 30 37
15 15 16 14 14 13 12 12 18 18 19 20 21 21 18 15 14 14 15 17 20 23 24 27 29 26 24 23 21 26 27 34 41 44 46 43 39 35 29 25 25 27 27 30
18 17 16 15 14 14 14 13 17 18 19 20 17 15 13 11 11 10 9 9 10 11 13 18 20 22 22 21 22 22 25 27 30 37 45 46 41 39 33 28 28 30 31 33
20 20 20 17 16 15 17 14 16 16 17 20 16 12 10 4 3 5 4 3 4 5 5 6 10 10 14 16 17 19 18 22 26 29 36 41 41 39 35 30 27 29 29 30
23 21 22 22 18 18 17 17 15 15 16 20 14 10 4 4 2 1 5 5 1 3 4 3 5 3 4 9 7 9 14 14 19 26 29 28 36 40 37 33 30 29 31 31
26 23 22 23 22 22 16 18 16 14 13 17 13 8 7 8 7 5 5 6 6 7 10 5 6 4 2 9 15 12 9 10 13 17 29 27 27 33 38 38 35 34 34 36
30 27 25 24 22 24 20 17 19 14 14 14 14 11 10 11 12 13 10 8 7 3 3 5 8 11 14 15 9 12 11 10 14 15 16 21 28 31 33 37 43 43 40 40
32 31 29 25 23 24 23 20 20 16 15 14 14 14 13 13 16 18 13 12 13 14 14 11 11 8 9 12 15 16 15 20 17 17 17 21 22 25 30 37 42 46 48 48
33 32 32 29 25 25 24 21 21 21 16 17 18 18 17 18 19 17 17 20 19 17 13 13 13 13 15 16 21 22 20 20 20 25 26 27 30 30 32 35 41 46 50 52
34 34 33 30 28 28 28 24 23 23 18 19 18 20 21 21 19 23 22 22 24 24 23 21 20 19 17 21 24 27 28 24 22 20 22 24 27 29 33 38 43 45 47 51
29 30 28 29 29 28 32 27 28 21 23 23 20 19 23 24 25 24 25 25 25 23 22 23 26 27 27 25 24 25 27 26 25 25 26 28 25 28 33 37 39 41 44 52
26 29 23 23 27 32 33 31 29 26 25 27 25 24 21 22 27 29 29 27 28 25 22 23 26 28 29 30 28 27 24 23 26 28 30 31 31 32 34 36 39 42 43 45
31 28 22 20 26 32 33 32 30 28 25 28 29 29 29 27 27 29 31 35 35 33 28 27 28 28 31 31 31 28 29 27 29 30 32 32 33 33 36 38 38 41 44 44
37 32 31 24 26 31 34 33 31 31 31 30 30 30 31 32 34 36 37 38 37 38 35 32 31 33 35 34 34 35 34 38 41 39 38 40 41 42 41 43 43 44 45 47
44 40 38 36 28 27 30 32 33 34 33 31 30 30 31 32 35 39 40 41 40 38 41 38 35 35 35 38 36 38 40 43 45 49 48 46 43 42 45 47 46 46 51 51
Wind_Direction
218 222 231 234 244 238 242 243 249 257 262 268 269 265 254 251 259 276 289 264 292 270 252 234 225 237 248 238 220 206 216 235 243 256 255 265 258 239 256 251 255 260 240 218
194 224 231 232 241 248 248 240 245 250 253 250 262 262 264 273 278 284 267 275 270 284 230 269 275 255 254 243 234 224 233 239 251 260 254 256 253 257 254 244 251 247 228 227
210 213 211 221 240 251 252 250 250 254 257 254 255 251 249 264 269 258 259 276 262 263 253 267 271 258 248 246 236 233 237 244 248 254 255 253 251 243 243 230 245 237 238 220
248 239 238 235 232 240 253 260 260 256 258 257 257 260 249 242 239 254 265 269 269 274 257 270 256 234 222 225 230 221 215 236 250 266 261 242 239 235 243 229 235 238 234 229
264 268 265 258 253 246 247 255 259 263 261 260 257 256 256 252 251 250 251 259 260 265 260 265 243 229 222 226 225 230 241 252 259 276 274 254 240 236 235 232 233 240 237 231
261 268 272 272 269 269 266 263 263 264 263 261 262 262 259 260 261 258 254 252 245 244 253 252 236 230 227 235 246 249 252 254 263 268 278 275 274 260 241 231 232 238 237 228
263 267 269 269 273 276 275 271 268 267 268 268 266 265 266 262 262 255 249 249 249 256 251 244 238 233 237 244 251 252 256 254 261 263 264 271 277 266 239 218 211 221 222 223
273 272 268 263 268 267 267 271 270 268 267 268 266 268 268 267 266 262 256 247 248 252 255 251 241 239 239 240 255 255 250 248 245 255 254 262 261 254 229 211 196 196 207 214
274 269 268 263 261 262 264 265 269 268 267 269 270 272 277 277 273 268 264 261 255 249 254 254 250 243 241 242 243 235 242 241 241 244 249 256 249 240 227 215 203 200 205 207
271 271 273 267 261 258 251 252 261 268 276 276 278 277 249 273 271 268 268 266 263 255 250 248 242 242 244 243 241 224 228 233 239 242 245 247 246 248 238 220 215 214 212 216
272 275 273 271 257 250 243 251 269 281 285 290 295 293 285 284 283 278 273 269 265 261 258 252 245 246 247 245 242 240 229 228 231 234 235 243 241 246 252 239 221 218 221 220
278 279 277 273 272 277 281 275 269 277 290 297 297 292 295 296 293 277 268 260 251 245 243 247 249 244 238 239 239 240 242 239 231 232 238 241 245 242 253 244 237 231 224 224
272 273 281 286 289 289 290 290 291 302 310 308 298 304 302 294 282 276 267 257 250 249 248 249 253 252 243 240 236 235 240 238 237 236 238 240 240 238 242 248 240 239 236 229
273 272 273 279 283 287 289 285 292 307 310 306 303 303 303 301 295 282 275 274 273 269 253 247 250 253 257 257 253 237 235 241 247 244 237 240 240 244 244 247 247 238 235 234
272 273 269 270 272 281 285 285 293 305 305 302 303 300 314 308 129 105 77 3 343 315 277 242 247 256 252 256 258 254 244 239 239 240 241 239 240 243 242 250 247 240 241 240
269 267 267 271 274 274 276 285 289 299 299 301 299 293 301 180 180 124 357 6 262 353 123 184 297 102 23 334 328 309 265 260 250 236 239 239 241 242 238 247 249 247 243 240
268 264 259 260 265 265 263 276 286 289 290 292 293 270 264 246 255 262 302 341 193 210 201 206 199 145 316 281 294 314 297 287 277 253 241 241 245 245 245 243 248 248 249 245
267 266 260 260 258 265 267 268 274 281 283 279 279 264 274 267 275 289 306 313 318 338 250 249 230 236 248 255 273 274 279 255 271 289 271 261 255 258 258 257 254 256 257 257
264 265 261 257 255 257 258 265 271 271 275 267 259 260 257 249 255 270 289 286 287 302 306 297 286 270 290 277 295 290 280 259 245 249 254 261 263 263 263 262 262 263 260 261
260 259 260 259 256 260 258 253 261 267 268 265 254 250 248 244 250 248 267 275 275 282 301 299 285 290 303 292 291 284 280 270 259 254 259 260 264 268 267 272 272 271 270 270
253 252 250 251 253 257 259 254 254 257 263 260 256 248 245 249 249 250 266 263 267 273 281 279 278 282 289 294 287 282 270 266 261 249 250 263 265 268 270 271 273 272 275 276
254 252 242 241 245 250 257 252 252 254 255 262 260 252 247 248 253 251 255 262 269 274 280 274 271 278 281 286 286 282 276 271 254 247 251 264 270 277 277 278 281 280 281 278
255 250 247 238 237 246 254 252 252 251 250 257 261 265 262 252 249 248 249 257 268 275 279 282 282 282 285 291 288 283 272 260 249 252 260 267 273 284 290 293 296 292 287 285
259 257 252 240 238 241 251 256 254 255 256 254 256 262 268 270 270 267 262 260 263 268 271 278 281 284 291 287 285 283 263 261 261 257 265 268 279 287 289 292 295 299 296 293
252 257 255 250 244 239 247 255 257 258 258 257 257 259 264 270 272 270 267 265 262 260 264 270 277 278 280 287 281 282 280 271 273 266 270 280 275 283 289 292 291 293 295 295
249 247 250 247 247 244 246 249 253 257 261 262 259 261 269 272 269 267 264 262 261 259 259 265 273 278 283 285 279 271 279 276 277 276 279 285 285 285 291 289 292 291 294 293
Height
10940 10942 10943 10945 10945 10949 10952 10952 10954 10955 10957 10959 10961 10963 10964 10965 10966 10967 10968 10969 10969 10969 10970 10971 10973 10974 10974 10975 10976 10978 10979 10981 10983 10984 10986 10988 10989 10991 10995 10996 10997 10997 10997 10998
10938 10939 10941 10941 10942 10943 10944 10947 10948 10950 10952 10955 10955 10957 10959 10959 10960 10961 10961 10962 10963 10965 10965 10966 10968 10968 10968 10968 10970 10971 10972 10974 10976 10977 10978 10981 10984 10986 10989 10992 10993 10995 10995 10996
10936 10937 10938 10939 10938 10938 10937 10939 10941 10943 10944 10945 10948 10952 10953 10952 10952 10954 10955 10955 10956 10958 10961 10961 10960 10960 10961 10962 10963 10965 10968 10970 10971 10971 10971 10972 10975 10979 10981 10986 10989 10992 10994 10995
10932 10933 10935 10936 10935 10934 10933 10933 10934 10936 10936 10938 10939 10940 10944 10945 10946 10947 10948 10949 10949 10951 10953 10954 10954 10955 10956 10957 10959 10960 10962 10964 10965 10966 10966 10966 10968 10971 10975 10980 10984 10988 10990 10993
10928 10929 10930 10931 10930 10930 10930 10928 10927 10927 10930 10930 10932 10932 10933 10933 10936 10940 10942 10942 10942 10945 10946 10947 10949 10950 10949 10951 10952 10953 10956 10958 10960 10961 10962 10962 10962 10965 10967 10972 10976 10981 10986 10988
10926 10926 10925 10925 10925 10924 10924 10924 10924 10923 10923 10924 10925 10926 10927 10926 10930 10934 10934 10935 10936 10937 10937 10939 10940 10942 10942 10942 10944 10947 10949 10950 10953 10955 10957 10957 10958 10959 10960 10963 10968 10972 10978 10983
10922 10922 10922 10922 10920 10919 10919 10919 10919 10919 10917 10918 10919 10920 10920 10921 10923 10926 10927 10927 10927 10927 10928 10930 10932 10934 10935 10936 10940 10941 10942 10945 10948 10950 10952 10952 10952 10952 10953 10957 10961 10968 10973 10977
10918 10918 10918 10917 10917 10916 10915 10914 10914 10914 10913 10913 10913 10914 10913 10914 10917 10917 10918 10920 10920 10919 10920 10922 10925 10927 10926 10929 10932 10933 10936 10939 10942 10944 10945 10946 10945 10946 10946 10950 10952 10959 10966 10971
10913 10913 10913 10913 10913 10913 10912 10910 10909 10908 10908 10909 10908 10910 10909 10908 10908 10908 10908 10909 10911 10913 10915 10916 10917 10918 10918 10920 10922 10927 10930 10933 10935 10938 10939 10940 10941 10941 10942 10945 10949 10953 10956 10961
10907 10908 10908 10908 10908 10909 10909 10907 10905 10902 10901 10902 10903 10907 10930 10903 10899 10900 10901 10900 10902 10904 10906 10907 10908 10908 10910 10912 10913 10917 10921 10924 10927 10930 10931 10932 10935 10939 10939 10942 10946 10950 10953 10955
10904 10903 10903 10903 10904 10904 10904 10903 10901 10898 10896 10895 10894 10894 10895 10894 10893 10891 10893 10892 10893 10894 10896 10897 10898 10900 10903 10905 10906 10907 10910 10914 10918 10920 10922 10924 10929 10933 10936 10939 10941 10942 10945 10949
10899 10897 10896 10897 10898 10897 10897 10897 10896 10895 10893 10891 10889 10888 10886 10884 10885 10884 10883 10882 10883 10884 10886 10887 10887 10894 10897 10898 10900 10900 10902 10906 10909 10912 10914 10917 10923 10927 10930 10932 10935 10938 10939 10942
10893 10892 10891 10891 10892 10892 10892 10891 10888 10887 10887 10885 10882 10881 10880 10878 10877 10876 10875 10875 10876 10877 10878 10879 10881 10885 10888 10891 10894 10895 10895 10897 10899 10904 10907 10910 10915 10919 10921 10924 10926 10929 10931 10932
10887 10887 10886 10886 10886 10886 10886 10886 10884 10883 10881 10879 10878 10877 10874 10874 10872 10872 10871 10871 10871 10872 10873 10875 10876 10878 10880 10884 10886 10889 10890 10892 10893 10895 10899 10903 10908 10912 10915 10917 10919 10919 10921 10923
10881 10881 10880 10881 10881 10881 10880 10881 10881 10880 10878 10875 10875 10873 10871 10870 10870 10870 10870 10870 10870 10870 10870 10871 10873 10874 10876 10878 10880 10882 10884 10886 10887 10889 10892 10897 10901 10905 10910 10911 10912 10914 10916 10918
10875 10876 10876 10876 10877 10877 10877 10876 10876 10876 10874 10871 10872 10871 10870 10869 10869 10870 10869 10870 10870 10870 10870 10872 10872 10873 10874 10876 10877 10878 10879 10881 10882 10884 10887 10890 10893 10896 10900 10902 10904 10906 10909 10911
10867 10869 10870 10871 10871 10871 10873 10871 10872 10871 10871 10868 10868 10869 10868 10868 10867 10868 10869 10869 10869 10870 10870 10871 10872 10872 10873 10874 10874 10876 10875 10876 10877 10879 10882 10885 10887 10889 10891 10894 10895 10897 10899 10900
10858 10860 10862 10864 10866 10865 10867 10868 10866 10867 10866 10865 10864 10865 10865 10864 10864 10864 10865 10866 10867 10869 10869 10869 10870 10870 10871 10871 10872 10872 10873 10874 10875 10875 10877 10878 10880 10881 10883 10884 10886 10887 10889 10891
10851 10852 10854 10857 10859 10859 10861 10862 10861 10862 10861 10861 10861 10862 10861 10862 10862 10863 10863 10864 10864 10864 10864 10866 10867 10867 10867 10867 10868 10868 10868 10868 10870 10871 10872 10873 10874 10875 10875 10876 10877 10877 10879 10881
10842 10843 10845 10848 10851 10851 10853 10855 10855 10856 10857 10857 10857 10858 10858 10858 10859 10860 10860 10860 10860 10861 10862 10863 10864 10864 10864 10865 10864 10863 10863 10863 10863 10864 10865 10866 10867 10868 10868 10867 10868 10867 10868 10871
10831 10834 10836 10839 10843 10844 10844 10847 10849 10849 10852 10851 10852 10852 10852 10853 10854 10854 10854 10854 10855 10856 10857 10859 10859 10860 10860 10860 10858 10857 10857 10858 10858 10857 10857 10858 10858 10859 10858 10858 10858 10858 10857 10858
10821 10823 10828 10830 10833 10836 10834 10839 10840 10843 10843 10844 10845 10845 10846 10846 10847 10847 10847 10847 10848 10849 10850 10851 10852 10852 10853 10853 10852 10852 10850 10850 10851 10851 10850 10850 10850 10849 10848 10848 10847 10846 10845 10844
10812 10813 10818 10822 10824 10826 10826 10829 10831 10834 10837 10836 10837 10838 10838 10839 10840 10840 10840 10839 10840 10841 10843 10843 10843 10843 10843 10843 10842 10843 10844 10844 10844 10844 10844 10844 10842 10841 10839 10836 10834 10833 10831 10828
10802 10804 10809 10812 10815 10817 10819 10821 10823 10826 10828 10829 10830 10831 10831 10831 10831 10831 10831 10831 10831 10833 10834 10834 10834 10834 10834 10833 10833 10833 10834 10835 10836 10837 10836 10835 10833 10831 10829 10827 10824 10820 10818 10815
10790 10795 10798 10803 10805 10807 10809 10812 10814 10816 10818 10820 10822 10823 10824 10824 10823 10822 10821 10820 10821 10823 10824 10824 10825 10826 10825 10825 10824 10823 10822 10822 10823 10823 10823 10823 10822 10820 10817 10814 10811 10808 10804 10800
10778 10782 10785 10789 10794 10800 10801 10803 10805 10806 10808 10810 10812 10814 10815 10815 10813 10811 10810 10810 10810 10812 10812 10814 10815 10815 10815 10815 10815 10814 10812 10810 10809 10808 10808 10807 10805 10803 10801 10799 10796 10793 10788 10785